Terminal Aerodrome Forecast
Issued by NWS Mt. Holly, NJ

Home | Current Version | Previous Version | Text Only | Print | Product List | Glossary On
Versions: 1 2 3 4 5 6 7 8 9 10 11 12 13 14 15 16 17 18 19 20 21 22
000
FTUS41 KPHI 240500
TAFTTN
TAF
KTTN 240535Z 2406/2506 34009KT P6SM FEW020 BKN040
     FM241400 33010G18KT P6SM FEW025 BKN050
     FM242300 30008KT P6SM BKN200=

USA.gov is the U.S. government's official web portal to all federal, state and local government web resources and services.